x

8449130 - Nantucket Island, Ma (ntkm3) Weather Station

12:54pm - Wed 3rd Jun 2015 All times are EDT. -4 hours from GMT.

  • Wind
    11mph, 15mph gusts
  • Sea Temp 61°f
  • Air Temp 54°f
  • Sea Pressure 1024.2mb
  • 8449130 - Nantucket Island, Ma
  • 8449130 - Nantucket Island, Ma

More Historic Weather Station data

Upgrade to MSW Pro to gain access to the past 30 days of data for over 8000 Wavebouys and Weather Stations around the globe.

Join Pro

Comparision Forecast

View Surf forecast
   
Wed 06/03 12:54pm 11 15 mph 1024.2mb 61f 54f
12:48pm 10 15 mph 1024.2mb 61f 54f
12:42pm 8 17 mph 1024.2mb 61f 54f
12:36pm 11 15 mph 1024.3mb 61f 53f
12:30pm 9 15 mph 1024.2mb 61f 54f
12:24pm 7 17 mph 1024.2mb 61f 54f
12:18pm 10 16 mph 1024.2mb 61f 54f
12:12pm 9 17 mph 1024.2mb 61f 54f
12:06pm 10 14 mph 1024.2mb 60f 54f
12:00pm 8 13 mph 1024.3mb 60f 53f
11:54am 7 15 mph 1024.3mb 60f 53f
11:48am 9 18 mph 1024.2mb 60f 53f
11:42am 8 14 mph 1024.3mb 60f 53f
11:36am 10 17 mph 1024.3mb 60f 53f
11:30am 14 16 mph 1024.3mb 60f 53f
11:24am 6 16 mph 1024.3mb 60f 53f
11:18am 9 15 mph 1024.3mb 60f 53f
11:12am 9 15 mph 1024.3mb 60f 52f
11:06am 10 15 mph 1024.4mb 60f 53f
11:00am 10 14 mph 1024.4mb 60f 52f
10:54am 8 16 mph 1024.2mb 60f 52f
10:48am 10 15 mph 1024.2mb 60f 52f
10:42am 10 15 mph 1024.3mb 60f 52f
10:36am 11 17 mph 1024.1mb 60f 52f
10:30am 10 16 mph 1024mb 60f 52f
10:24am 11 17 mph 1024mb 60f 52f
10:18am 11 18 mph 1023.9mb 60f 52f
10:12am 11 15 mph 1023.9mb 60f 52f
10:06am 9 16 mph 1023.7mb 60f 52f
10:00am 10 16 mph 1023.5mb 60f 52f
9:54am 13 17 mph 1023.5mb 60f 52f
9:48am 10 15 mph 1023.6mb 60f 52f
9:42am 9 15 mph 1023.7mb 60f 52f
9:36am 9 13 mph 1023.7mb 60f 52f
9:30am 7 14 mph 1023.8mb 60f 52f
9:24am 7 14 mph 1023.5mb 60f 52f
9:18am 11 14 mph 1023.5mb 60f 51f
9:12am 8 14 mph 1023.5mb 60f 52f
9:06am 6 14 mph 1023.6mb 60f 51f
9:00am 11 14 mph 1023.5mb 60f 51f
8:54am 11 20 mph 1023.4mb 60f 51f
8:48am 11 16 mph 1023.3mb 60f 51f
8:42am 9 14 mph 1023.3mb 60f 51f
8:36am 10 16 mph 1023.3mb 60f 51f
8:30am 10 17 mph 1023.2mb 60f 51f
8:24am 10 16 mph 1023.2mb 60f 51f
8:18am 10 17 mph 1023.1mb 60f 51f
8:12am 10 16 mph 1023.1mb 60f 51f
8:06am 13 21 mph 1022.9mb 59f 51f
8:00am 10 17 mph 1022.9mb 59f 51f
7:54am 11 18 mph 1023mb 59f 50f
7:48am 9 17 mph 1023.1mb 59f 51f
7:42am 10 15 mph 1023.1mb 60f 51f
7:36am 9 15 mph 1022.9mb 59f 51f
7:30am 9 16 mph 1023.2mb 59f 51f
7:24am 9 20 mph 1023.1mb 59f 51f
7:18am 13 18 mph 1022.9mb 59f 50f
7:12am 11 16 mph 1023.1mb 59f 50f
7:06am 9 16 mph 1023mb 59f 50f
7:00am 11 18 mph 1023mb 59f 50f
6:54am 8 17 mph 1022.9mb 59f 50f
6:48am 11 18 mph 1022.7mb 60f 50f
6:42am 9 16 mph 1022.6mb 60f 50f
6:36am 8 16 mph 1022.6mb 60f 50f
6:30am 10 18 mph 1022.5mb 60f 50f
6:24am 8 18 mph 1022.5mb 60f 50f
6:18am 14 17 mph 1022.5mb 60f 50f
6:12am 9 15 mph 1022.6mb 60f 50f
6:06am 8 15 mph 1022.6mb 60f 50f
6:00am 8 14 mph 1022.6mb 60f 50f
5:54am 7 15 mph 1022.7mb 60f 50f
5:48am 9 14 mph 1022.5mb 60f 50f
5:42am 9 17 mph 1022.4mb 60f 50f
5:36am 11 15 mph 1022.2mb 60f 50f
5:30am 8 16 mph 1022.2mb 60f 50f
5:24am 7 15 mph 1022.1mb 60f 50f
5:18am 8 14 mph 1022mb 60f 50f
5:12am 9 15 mph 1021.9mb 60f 50f
5:06am 7 14 mph 1021.9mb 60f 50f
5:00am 8 15 mph 1021.9mb 60f 50f
4:54am 9 16 mph 1021.9mb 61f 50f
4:48am 10 16 mph 1021.9mb 61f 50f
4:42am 8 17 mph 1021.9mb 61f 50f
4:36am 8 15 mph 1021.8mb 61f 50f
4:30am 10 14 mph 1021.8mb 61f 50f
4:24am 7 15 mph 1021.8mb 61f 50f
4:18am 9 15 mph 1021.8mb 61f 50f
4:12am 8 16 mph 1021.6mb 61f 50f
4:06am 8 15 mph 1021.6mb 61f 50f
4:00am 8 16 mph 1021.4mb 61f 50f
3:54am 9 17 mph 1021.5mb 61f 50f
3:48am 10 16 mph 1021.5mb 61f 50f
3:42am 10 17 mph 1021.5mb 61f 51f
3:36am 7 16 mph 1021.3mb 61f 51f
3:30am 10 15 mph 1021.3mb 61f 51f
3:24am 7 17 mph 1021.3mb 61f 51f
3:18am 9 15 mph 1021.3mb 61f 51f
3:12am 8 15 mph 1021.2mb - -
3:06am 8 17 mph 1021.2mb - -
3:00am 9 15 mph 1021.3mb - -
2:54am 9 17 mph 1021.3mb - -
2:48am  -  mph - 61f -
2:42am 13 17 mph - 61f -
2:36am 9 20 mph - 61f -
2:30am 9 16 mph - 61f -
2:24am 8 17 mph - 61f -
2:18am 10 17 mph - - -
2:12am 11 17 mph - - -
2:06am 9 20 mph - - -
2:00am  -  mph 1021mb 61f 51f
1:54am  -  mph 1021.1mb 61f 51f
1:48am 9 18 mph 1021.2mb 61f 51f
1:42am 10 17 mph 1021.2mb 61f 51f
1:36am 8 15 mph 1021.3mb 61f 51f
1:30am 10 16 mph 1021.3mb 61f 51f
1:24am 9 17 mph 1021.2mb 61f 51f
1:18am 11 17 mph 1021.3mb 61f 51f
1:12am 13 20 mph 1021.4mb 61f 51f
1:06am 11 17 mph 1021.2mb 61f 51f
1:00am 8 16 mph 1021.2mb 61f 51f
12:54am 7 18 mph 1021.3mb 61f 51f
12:48am 10 20 mph 1021.3mb 61f -
12:42am 7 16 mph 1021.5mb 61f 51f
12:36am 9 18 mph 1021.4mb 61f 51f
12:30am 9 17 mph 1021.4mb 62f 51f
12:24am 9 18 mph 1021.5mb 62f 51f
12:18am 9 20 mph 1021.6mb 62f 51f
12:12am 11 21 mph 1021.5mb 62f 51f
12:06am 8 18 mph 1021.5mb 62f 51f
12:00am 7 17 mph 1021.4mb 62f 51f
Tue 06/02 11:54pm 11 20 mph 1021.3mb 62f 51f
11:48pm 10 20 mph 1021.2mb 62f 51f
11:42pm 10 17 mph 1021.2mb 62f 51f
11:36pm 10 15 mph 1021.2mb 62f 51f
11:30pm 11 18 mph 1021.2mb 62f 51f
11:24pm 9 16 mph 1021.2mb 62f 51f
11:18pm 8 17 mph 1021.3mb 62f 51f
11:12pm 10 18 mph 1021.2mb 62f 51f
11:06pm 11 18 mph 1021.1mb 62f 51f
11:00pm 9 16 mph 1021mb 62f 51f
10:54pm 10 20 mph 1021mb 62f 51f
10:48pm 9 16 mph 1020.9mb 62f 51f
10:42pm 10 18 mph 1021mb 62f 51f
10:36pm 10 21 mph 1020.9mb 62f 51f
10:30pm 10 23 mph 1020.9mb 62f 51f
10:24pm 8 18 mph 1020.8mb 62f 51f
10:18pm 8 17 mph 1020.7mb 62f 51f
10:12pm 11 23 mph 1020.8mb 62f 51f
10:06pm 14 21 mph 1020.9mb 62f 51f
10:00pm 14 18 mph 1021mb 62f 51f
9:54pm 14 21 mph 1020.9mb 62f 51f
9:48pm 15 22 mph 1020.9mb 62f 51f
9:42pm 11 20 mph 1021mb 62f 51f
9:36pm 16 23 mph 1020.9mb 62f 51f
9:30pm 13 21 mph 1020.9mb 62f 51f
9:24pm 16 22 mph 1020.9mb 62f 51f
9:18pm 17 23 mph 1020.9mb 62f 51f
9:12pm 14 21 mph 1020.8mb 62f 50f
9:06pm 14 21 mph 1020.7mb 62f 51f
9:00pm 14 22 mph 1020.6mb 62f 51f
8:54pm 14 21 mph 1020.5mb 62f 50f
8:48pm 14 20 mph 1020.4mb 62f 51f
8:42pm 15 21 mph 1020.4mb 62f 51f
8:36pm 13 22 mph 1020.4mb 62f 51f
8:30pm 14 22 mph 1020.3mb 62f 51f
8:24pm 13 21 mph 1020.3mb 62f 51f
8:18pm 15 21 mph 1020.3mb 62f 51f
8:12pm 13 20 mph 1020.2mb 62f 51f
8:06pm 14 21 mph 1020.1mb 62f 51f
8:00pm 13 22 mph 1020.1mb 62f 51f
7:54pm 15 21 mph 1020.1mb 62f 51f
7:48pm 11 20 mph 1020.2mb 62f 51f
7:42pm 11 22 mph 1020.2mb 63f 51f
7:36pm 13 20 mph 1020.2mb 63f 51f
7:30pm 14 20 mph 1020.3mb 63f 51f
7:24pm 15 22 mph 1020.2mb 63f 51f
7:18pm 13 21 mph 1020.2mb 63f 51f
7:12pm 15 22 mph 1020.2mb 63f 51f
7:06pm 14 20 mph 1020.1mb 63f 51f
7:00pm 11 21 mph 1020mb 63f 51f
6:54pm 16 23 mph 1020mb 63f 51f
6:48pm 15 23 mph 1020mb 63f 51f
6:42pm 16 22 mph 1019.9mb 63f 51f
6:36pm 14 20 mph 1019.9mb 63f 51f
6:30pm 16 22 mph 1019.7mb 63f 51f
6:24pm 18 23 mph 1019.8mb 63f 51f
6:18pm 16 24 mph 1019.7mb 63f 51f
6:12pm 13 20 mph 1019.6mb 63f 51f
6:06pm 10 17 mph 1019.6mb 63f 51f
6:00pm 8 20 mph 1019.6mb 63f 51f
5:54pm 11 20 mph 1019.6mb 63f 51f
5:48pm 11 17 mph 1019.5mb 63f 51f
5:42pm 9 17 mph 1019.5mb 63f 51f
5:36pm 10 20 mph 1019.5mb 63f 51f
5:30pm 11 18 mph 1019.6mb 63f 51f
5:24pm 10 20 mph 1019.5mb 63f 51f
5:18pm 9 20 mph 1019.6mb 63f 51f
5:12pm 14 20 mph 1019.6mb 63f 51f
5:06pm 10 20 mph 1019.6mb 63f 51f
5:00pm 8 21 mph 1019.6mb 63f 51f
4:54pm 11 20 mph 1019.6mb 63f 51f
4:48pm 11 18 mph 1019.5mb 63f 52f
4:42pm 9 21 mph 1019.5mb 63f 52f
4:36pm 13 18 mph 1019.5mb 63f 51f
4:30pm 14 22 mph 1019.5mb 63f 51f
4:24pm 14 21 mph 1019.5mb 63f 51f
4:18pm 15 21 mph 1019.5mb 63f 51f
4:12pm 14 18 mph 1019.5mb 63f 51f
4:06pm 14 22 mph 1019.5mb 63f 51f
4:00pm 14 18 mph 1019.5mb 63f 51f
3:54pm 14 18 mph 1019.5mb 63f 51f
3:48pm 11 22 mph 1019.5mb 63f 51f
3:42pm 16 22 mph 1019.4mb 63f 51f
3:36pm 17 23 mph 1019.4mb 63f 51f
3:30pm 14 22 mph 1019.4mb 63f 52f
3:24pm 14 21 mph 1019.3mb 63f 52f
3:18pm 15 21 mph 1019.4mb 63f 52f
3:12pm 10 21 mph 1019.3mb 63f 52f
3:06pm 16 21 mph 1019.3mb 63f 52f
3:00pm 14 21 mph 1019.4mb 63f 52f
2:54pm 15 20 mph 1019.4mb 63f 52f
2:48pm 16 21 mph 1019.4mb 63f 52f
2:42pm 13 21 mph 1019.3mb 63f 52f
2:36pm 14 20 mph 1019.2mb 63f 52f
2:30pm 14 20 mph 1019.3mb 63f 52f
2:24pm 13 21 mph 1019.3mb 63f 53f
2:18pm 14 20 mph 1019.3mb 63f 53f
2:12pm 15 22 mph 1019.4mb 63f 52f
2:06pm 14 21 mph 1019.4mb 63f 53f
2:00pm 14 22 mph 1019.3mb 63f 53f
1:54pm 14 22 mph 1019.3mb 63f 53f
1:48pm 15 21 mph 1019.3mb 63f 53f
1:42pm 13 21 mph 1019.3mb 63f 53f
1:36pm 15 20 mph 1019.4mb 63f 53f
1:30pm 11 20 mph 1019.3mb 63f 53f
1:24pm 14 20 mph 1019.1mb 63f 53f
1:18pm 11 18 mph 1019.1mb 63f 53f
1:12pm 11 18 mph 1019.1mb 63f 54f
1:06pm 10 18 mph 1019.1mb 63f 54f
1:00pm 10 16 mph 1019.1mb 63f 54f
12:54pm 13 18 mph 1019.2mb 63f 54f
12:48pm 13 20 mph 1019.3mb 63f 54f
12:42pm 13 20 mph 1019.3mb 63f 54f
12:36pm 15 18 mph 1019.4mb 63f 54f
12:30pm 11 17 mph 1019.4mb 63f 54f
12:24pm 9 20 mph 1019.3mb 63f 54f
12:18pm 13 20 mph 1019.3mb 63f 54f
12:12pm 11 16 mph 1019.4mb 63f 55f
12:06pm 11 18 mph 1019.4mb 63f 54f
12:00pm 10 18 mph 1019.5mb 63f 54f
11:54am 9 20 mph 1019.4mb 63f 54f
11:48am 13 18 mph 1019.4mb 63f 54f
11:42am 9 16 mph 1019.3mb 63f 55f
11:36am 10 17 mph 1019.3mb 63f 55f
11:30am 11 15 mph 1019.3mb 63f 54f
11:24am 10 17 mph 1019.3mb 63f 55f
11:18am 10 16 mph 1019.4mb 63f 55f
11:12am 9 16 mph 1019.3mb 63f 55f
11:06am 8 15 mph 1019.4mb 63f 55f
11:00am 9 15 mph 1019.3mb 63f 55f
10:54am 11 17 mph 1019.3mb 63f 55f
10:48am 11 21 mph 1019.3mb 63f 55f
10:42am 10 18 mph 1019.2mb 63f 55f
10:36am 10 20 mph 1019.2mb 63f 55f
10:30am 14 18 mph 1019.1mb 63f 55f
10:24am 10 20 mph 1019.1mb 63f 55f
10:18am 10 17 mph 1019.1mb 63f 55f
10:12am 11 17 mph 1019.2mb 63f 54f
10:06am 9 17 mph 1019.2mb 63f 55f
10:00am 10 17 mph 1019.1mb 63f 54f
9:54am 13 17 mph 1019.1mb 62f 54f
9:48am 11 16 mph 1019mb 62f 54f
9:42am 10 15 mph 1019mb 62f 54f
9:36am 10 16 mph 1019mb 62f 54f
9:30am 8 15 mph 1019.3mb 62f 54f
9:24am 10 17 mph 1019mb 62f 54f
9:18am 10 15 mph 1019.2mb 62f 54f
9:12am 10 15 mph 1019.1mb 62f 54f
9:06am 10 17 mph 1019.1mb 62f 54f
9:00am 9 17 mph 1019.1mb 62f 54f
8:54am 11 16 mph 1019.2mb 62f 54f
8:48am 9 16 mph 1019.3mb 62f 54f
8:42am 10 18 mph 1019.2mb 62f 53f
8:36am 10 17 mph 1019.3mb 62f 54f
8:30am 14 17 mph 1019.3mb 62f 53f
8:24am 11 16 mph 1019.4mb 62f 54f
8:18am 13 18 mph 1019.4mb 62f 53f
8:12am 10 15 mph 1019.4mb 62f 53f
8:06am 9 14 mph 1019.2mb 62f 54f
8:00am 9 15 mph 1019mb 62f 53f
7:54am 8 14 mph 1019.1mb 63f 53f
7:48am 9 15 mph 1019.2mb 63f 53f
7:42am 9 13 mph 1019.2mb 63f 53f
7:36am 8 14 mph 1019.2mb 63f 53f
7:30am 8 14 mph 1019.1mb 63f 53f
7:24am 8 14 mph 1019.1mb 63f 53f
7:18am 10 16 mph 1019.1mb 63f 53f
7:12am 9 15 mph 1019.1mb 63f 53f
7:06am 8 14 mph 1019.1mb 63f 53f
7:00am 7 14 mph 1019.2mb 63f 53f
6:54am 9 15 mph 1019.2mb 63f 53f
6:48am 7 14 mph 1019.1mb 63f 53f
6:42am 8 13 mph 1019.1mb 63f 53f
6:36am 8 14 mph 1019mb 63f 53f
6:30am 8 14 mph 1018.9mb 63f 53f
6:24am 8 13 mph 1019.1mb 63f 53f
6:18am 8 14 mph 1019mb 63f 53f
6:12am 9 14 mph 1019.1mb 63f 53f
6:06am 7 14 mph 1019.1mb 63f 53f
6:00am 8 13 mph 1019.1mb 63f 53f
5:54am 8 13 mph 1019mb 63f 53f
5:48am 9 11 mph 1019mb 63f 53f
5:42am 7 14 mph 1019.1mb 63f 53f
5:36am 8 14 mph 1019mb 63f 53f
5:30am 10 14 mph 1018.8mb 63f 53f
5:24am 9 13 mph 1018.7mb 63f 53f
5:18am 8 13 mph 1018.7mb - 53f
5:12am 9 15 mph 1018.8mb - 53f
5:06am 9 14 mph 1018.7mb - 53f
5:00am 10 14 mph - 63f 53f
4:54am 10 13 mph - 63f 53f
4:48am 9 13 mph 1018.9mb 63f 53f
4:42am 9 16 mph 1018.9mb 63f 53f
4:36am 11 15 mph 1018.9mb 63f 53f
4:30am 9 14 mph 1019.1mb 63f 53f
4:24am 7 14 mph 1019.1mb 63f 53f
4:18am 9 14 mph 1019mb 63f 53f
4:12am 9 13 mph 1019.2mb 63f 53f
4:06am 8 10 mph 1019.2mb 63f 53f
4:00am 7 11 mph 1019.5mb 63f 53f
3:54am 9 13 mph 1019.3mb 63f 53f
3:48am 8 13 mph 1019.3mb 63f 53f
3:42am 9 14 mph 1019.3mb 63f 53f
3:36am 9 11 mph 1019.4mb 63f 53f
3:30am 7 13 mph 1019.4mb 63f 53f
3:24am 9 13 mph 1019.3mb 63f 53f
3:18am  -  mph 1019.5mb 63f -
3:12am  -  mph 1019.7mb 63f 53f
3:06am  -  mph 1019.6mb 63f 53f
3:00am 8 14 mph 1019.7mb 63f 53f
2:54am 9 13 mph 1019.6mb 63f 53f
2:48am  -  mph 1019.7mb 64f -
2:36am 8 14 mph 1019.6mb - -
2:30am 11 14 mph 1019.6mb 64f -
2:24am  -  mph 1019.6mb 64f -
2:18am  -  mph 1019.7mb 64f -
2:12am  -  mph - 64f 53f
2:00am  -  mph - 63f 53f
1:54am  -  mph - 63f 53f
1:48am 11 16 mph 1020mb 64f 53f
1:42am 11 16 mph 1019.9mb 64f 53f
1:36am 14 16 mph 1020mb 64f 53f
1:30am 10 15 mph 1020.1mb - 53f
1:24am 11 16 mph 1020.1mb - 53f
1:18am 11 16 mph 1020.1mb 64f 53f
1:12am 13 16 mph 1020.2mb 64f 53f
1:06am 11 15 mph 1020.2mb 64f 53f
1:00am 11 16 mph 1020.3mb 64f 53f
12:54am 11 16 mph 1020.4mb 64f 53f
12:48am 11 17 mph 1020.5mb 64f 53f
12:42am 13 15 mph 1020.5mb 64f 53f
12:36am 13 17 mph 1020.6mb 64f 53f
12:30am 14 16 mph 1020.6mb 64f 53f
12:24am 14 17 mph 1020.7mb 64f 53f
12:18am 13 17 mph 1020.7mb 64f 53f
12:12am 11 16 mph 1020.9mb 64f 53f
12:06am 13 17 mph 1021mb 64f 53f
12:00am 11 20 mph 1021mb 64f 53f
Mon 06/01 11:54pm 14 17 mph 1021.2mb 64f 53f
11:48pm 11 16 mph 1021.1mb 64f 53f
11:42pm 13 17 mph 1021.1mb 64f 53f
11:36pm 11 17 mph 1021.2mb 63f 53f
11:30pm 11 18 mph 1021.2mb 63f 53f
11:24pm 14 17 mph 1021.3mb 63f 53f
11:18pm 11 17 mph 1021.3mb 64f 53f
11:12pm 11 18 mph 1021.3mb 64f 53f
11:06pm 14 17 mph 1021.3mb 64f 53f
11:00pm 14 18 mph 1021.3mb 64f 53f
10:54pm 13 17 mph 1021.3mb 64f 53f
10:48pm 11 18 mph 1021.3mb 64f 53f
10:42pm 14 20 mph 1021.4mb 64f 53f
10:36pm 14 21 mph 1021.4mb 64f 53f
10:30pm 14 22 mph 1021.4mb 64f 53f
10:24pm 17 21 mph 1021.4mb 64f 53f
10:18pm 16 18 mph 1021.4mb 64f 53f
10:12pm 15 20 mph 1021.3mb 64f 53f
10:06pm 15 21 mph 1021.4mb 64f 53f
10:00pm 16 21 mph 1021.5mb 64f 53f
9:54pm 13 22 mph 1021.5mb 64f 53f
9:48pm 15 20 mph 1021.5mb 64f 53f
9:42pm 13 20 mph 1021.6mb 64f 53f
9:36pm 17 22 mph 1021.5mb 64f 53f
9:30pm 14 21 mph 1021.3mb 64f 53f
9:24pm 16 21 mph 1021.4mb 64f 52f
9:18pm 14 21 mph 1021.4mb 64f 52f
9:12pm 13 22 mph 1021.3mb 64f 52f
9:06pm 15 22 mph 1021.3mb 64f 52f
9:00pm 15 20 mph 1021.3mb 64f 52f
8:54pm 15 21 mph 1021.5mb 64f 52f
8:48pm 14 22 mph 1021.5mb 64f 52f
8:42pm 14 20 mph 1021.6mb 64f 52f
8:36pm 11 20 mph 1021.6mb 64f 52f
8:30pm 13 18 mph 1021.5mb 64f 52f
8:24pm 14 22 mph 1021.4mb 64f 52f
8:18pm 14 22 mph 1021.4mb 64f 52f
8:12pm 14 20 mph 1021.4mb 64f 52f
8:06pm 15 20 mph 1021.5mb 64f 52f
8:00pm 14 20 mph 1021.6mb 64f 53f
7:54pm 11 20 mph 1021.6mb 64f 53f
7:48pm 13 17 mph 1021.7mb 64f 53f
7:42pm 13 18 mph 1021.7mb 64f 52f
7:36pm 15 21 mph 1021.8mb 64f 52f
7:30pm 15 18 mph 1021.7mb 64f 52f
7:24pm 13 18 mph 1021.7mb 64f 52f
7:18pm 15 18 mph 1021.7mb 64f 52f
7:12pm 15 18 mph 1021.8mb 64f 53f
7:06pm 10 17 mph 1021.8mb 64f 53f
7:00pm 14 21 mph 1021.7mb 64f 53f
6:54pm 15 20 mph 1021.7mb 65f 53f
6:48pm 14 21 mph 1021.7mb 65f 53f
6:42pm 16 20 mph 1021.6mb 65f 53f
6:36pm 14 20 mph 1021.5mb 65f 53f
6:30pm 13 18 mph 1021.6mb 65f 53f
6:24pm 14 20 mph 1021.5mb 65f 53f
6:18pm 15 21 mph 1021.4mb 65f 53f
6:12pm 14 18 mph 1021.4mb 65f 53f
6:06pm 13 21 mph 1021.3mb 65f 53f
6:00pm 16 22 mph 1021.3mb 65f 53f
5:54pm 11 18 mph 1021.2mb 65f 53f
5:48pm 14 23 mph 1021.1mb 65f 53f
5:42pm 17 22 mph 1021.1mb 65f 53f
5:36pm 16 21 mph 1021.1mb 65f 53f
5:30pm 14 21 mph 1021.2mb 65f 53f
5:24pm 16 21 mph 1021.2mb 65f 53f
5:18pm 14 22 mph 1021.3mb 65f 53f
5:12pm 14 21 mph 1021.3mb 65f 53f
5:06pm 13 20 mph 1021.3mb 65f 54f
5:00pm 14 21 mph 1021.4mb 65f 53f
4:54pm 13 18 mph 1021.4mb 65f 54f
4:48pm 11 22 mph 1021.5mb 65f 54f
4:42pm 11 22 mph 1021.5mb 65f 54f
4:36pm 14 21 mph 1021.6mb 66f 54f
4:30pm 11 18 mph 1021.5mb 66f 54f
4:24pm 15 20 mph 1021.6mb 66f 54f
4:18pm 13 17 mph 1021.7mb 66f 54f
4:12pm 10 21 mph 1021.7mb 66f 55f
4:06pm 10 17 mph 1021.7mb 66f 55f
4:00pm 13 20 mph 1021.7mb 66f 55f
3:54pm 11 18 mph 1021.6mb 66f 55f
3:48pm 14 18 mph 1021.5mb 66f 55f
3:42pm 10 18 mph 1021.5mb 66f 55f
3:36pm 14 17 mph 1021.5mb 66f 55f
3:30pm 11 16 mph 1021.5mb 66f 56f
3:24pm 14 18 mph 1021.5mb 66f 55f
3:18pm 13 18 mph 1021.5mb 66f 55f
3:12pm 9 17 mph 1021.5mb 66f 55f
3:06pm 11 17 mph 1021.5mb 66f 55f
3:00pm 13 17 mph 1021.5mb 66f 55f
2:54pm 10 15 mph 1021.4mb 66f 55f
2:48pm 11 15 mph 1021.5mb 66f 55f
2:42pm 9 13 mph 1021.4mb 66f 56f
2:36pm 8 13 mph 1021.4mb 66f 56f
2:30pm 7 11 mph 1021.5mb 66f 56f
2:24pm 7 11 mph 1021.4mb 66f 56f
2:18pm 8 13 mph 1021.2mb 66f -
2:12pm 8 11 mph 1021.2mb 66f 56f
2:06pm 7 13 mph 1021mb 66f 56f
2:00pm 8 13 mph 1021mb 66f 56f
1:54pm 8 11 mph 1021.1mb 66f 56f
1:48pm 8 13 mph 1021.2mb 66f 56f
1:42pm 10 15 mph 1021.2mb 66f 56f
1:36pm 9 14 mph 1021.3mb 66f 56f
1:30pm 9 13 mph 1021.4mb 66f 56f
1:24pm 9 11 mph 1021.5mb 66f 56f
1:18pm 9 13 mph 1021.5mb 66f 56f
1:12pm 8 11 mph 1021.5mb 66f 56f
1:06pm 10 13 mph 1021.4mb 65f 56f
1:00pm 9 14 mph 1021.5mb 65f 56f
12:54pm 9 14 mph 1021.4mb 65f 56f
12:48pm 8 11 mph 1021.6mb 65f 56f
12:42pm 10 14 mph 1021.7mb 65f 56f
12:36pm 8 13 mph 1021.8mb 65f 56f
12:30pm 9 11 mph 1021.8mb 65f 56f
12:24pm 9 13 mph 1021.9mb 65f 56f
12:18pm 9 13 mph 1021.9mb 65f 56f
12:12pm 9 13 mph 1021.8mb 65f 56f
12:06pm 9 13 mph 1021.8mb 65f 57f
12:00pm 8 14 mph 1021.8mb 65f 56f
11:54am 10 14 mph 1021.9mb 65f 56f
11:48am 9 14 mph 1021.9mb 65f 56f
11:42am 10 14 mph 1022mb 65f 56f
11:36am 9 14 mph 1022.1mb 65f 55f
11:30am 8 15 mph 1022.1mb 65f 56f
11:24am 11 14 mph 1022mb 65f 56f
11:18am 10 15 mph 1022.1mb 65f 56f
11:12am 10 14 mph 1021.9mb 65f 56f
11:06am 10 14 mph 1022mb 65f 56f
11:00am 10 15 mph 1022mb 65f 56f
10:54am 9 15 mph 1022mb 65f 56f
10:48am 10 14 mph 1022mb 65f 56f
10:42am 10 14 mph 1022mb 65f 56f
10:36am 9 13 mph 1021.9mb 65f 56f
10:30am 10 14 mph 1022mb 65f 56f
10:24am 10 14 mph 1022mb 65f 56f
10:18am 10 14 mph 1022mb 65f 56f
10:12am 9 14 mph 1022mb 65f 56f
10:06am 10 15 mph 1022mb 65f 56f
10:00am 9 14 mph 1022.1mb 65f 56f
9:54am 9 15 mph 1022.1mb 65f 55f
9:48am 9 14 mph 1022.2mb 65f 55f
9:42am 10 14 mph 1022.2mb 65f 55f
9:36am 9 15 mph 1022.4mb 65f 55f
9:30am 10 14 mph 1022.4mb 65f 55f
9:24am 10 13 mph 1022.4mb 65f 55f
9:18am 10 14 mph 1022.4mb 65f 55f
9:12am 10 14 mph 1022.6mb 65f 55f
9:06am 10 14 mph 1022.4mb 65f 55f
9:00am 10 14 mph 1022.6mb 65f 55f
8:54am 10 14 mph 1022.5mb 65f 55f
8:48am 11 14 mph 1022.5mb 65f 55f
8:42am 8 17 mph 1022.6mb 65f 55f
8:36am 13 14 mph 1022.6mb 65f 54f
8:30am 10 14 mph 1022.7mb 65f 54f
8:24am 10 15 mph 1022.7mb 65f 54f
8:18am 10 14 mph 1022.6mb 65f 54f
8:12am 10 14 mph 1022.6mb 65f 54f
8:06am 10 14 mph 1022.6mb 65f 54f
8:00am 10 13 mph 1022.5mb 65f 54f
7:54am 10 14 mph 1022.6mb 65f 54f
7:48am 9 14 mph 1022.6mb 65f 54f
7:42am 9 14 mph 1022.6mb 65f 54f
7:36am 9 14 mph 1022.4mb 65f 55f
7:30am 9 13 mph 1022.3mb 65f 55f
7:24am 9 14 mph 1022.2mb 65f 54f
7:18am 9 14 mph 1022mb 65f 55f
7:12am 10 15 mph 1021.9mb 65f 54f
7:06am 10 13 mph 1021.8mb 65f 54f
7:00am 8 15 mph 1021.9mb 65f 54f
6:54am 11 15 mph 1021.9mb 65f 54f
6:48am 13 15 mph 1021.9mb 65f 54f
5:54am 11 15 mph 1021.7mb 65f 53f
5:48am 9 14 mph 1021.7mb 65f 53f
4:00am 13 17 mph 1021.7mb 66f -
3:54am 11 15 mph 1021.9mb 66f -
3:48am 10 16 mph 1021.9mb 66f -
3:42am 9 16 mph 1021.7mb 66f -
3:36am 11 17 mph 1021.8mb 66f -
3:30am 9 17 mph 1021.9mb 66f -
3:24am  -  mph 1021.8mb - -
3:18am 11 17 mph 1021.9mb 66f -
3:12am 10 17 mph 1021.8mb - 53f
3:06am 10 16 mph 1022mb 66f 53f
3:00am 11 16 mph 1021.9mb 66f 53f
2:54am 11 15 mph 1021.9mb 67f 53f
2:48am  -  mph 1022mb - -
2:42am  -  mph 1021.9mb - -
2:36am  -  mph 1021.9mb - -
2:30am  -  mph - 67f 53f
2:24am  -  mph - 67f 53f
2:18am  -  mph - - 53f
2:12am  -  mph - - 53f
2:06am  -  mph - - 53f
2:00am 10 15 mph - - -
1:54am 10 15 mph - - -
1:48am 9 16 mph 1022.3mb 67f 53f
1:42am 9 15 mph 1022.3mb 67f 53f
1:36am 11 16 mph 1022.3mb 67f 53f
1:30am 9 14 mph 1022.4mb 67f 53f
1:24am 9 14 mph 1022.4mb 67f 54f
1:18am 11 15 mph 1022.5mb 67f 54f
1:12am 8 15 mph 1022.4mb 67f 54f
1:06am 11 16 mph 1022.3mb 67f 54f
1:00am 9 15 mph 1022.4mb 67f 54f
12:54am 10 16 mph 1022.4mb 67f 54f
12:48am 11 14 mph 1022.4mb 67f 54f
12:42am 10 16 mph 1022.5mb 67f 54f
12:36am 13 16 mph 1022.4mb 67f 54f
12:30am 10 15 mph 1022.6mb 67f 54f
12:24am 11 16 mph 1022.7mb 67f 54f
12:18am 9 16 mph 1022.8mb 67f 54f
12:12am 10 15 mph 1022.8mb 67f 54f
12:06am 11 15 mph 1022.8mb 67f 54f
12:00am 11 16 mph 1022.8mb 67f 54f
Sun 05/31 11:54pm 8 14 mph 1022.8mb 67f 55f
11:48pm 9 14 mph 1022.9mb 67f 55f
11:42pm 9 15 mph 1022.9mb 67f 55f
11:36pm 8 14 mph 1022.9mb 67f 55f
11:30pm 8 15 mph 1022.9mb 67f 55f
11:24pm 10 15 mph 1022.9mb 67f 55f
11:18pm 9 17 mph 1022.9mb 67f 55f
11:12pm 9 15 mph 1022.8mb 67f 55f
11:06pm 9 14 mph 1022.7mb 67f 56f
11:00pm 8 15 mph 1022.7mb 67f 56f
10:54pm 8 14 mph 1022.6mb 67f 56f
10:48pm 9 15 mph 1022.6mb 67f 56f
10:42pm 11 15 mph 1022.6mb 67f 55f
10:36pm 10 15 mph 1022.7mb 67f 56f
10:30pm 9 15 mph 1022.7mb 67f 55f
10:24pm 10 13 mph 1022.8mb 67f 56f
10:18pm 7 15 mph 1022.8mb 67f 56f
10:12pm 8 15 mph 1022.8mb 67f 56f
10:06pm 9 16 mph 1022.8mb 67f 56f
10:00pm 9 16 mph 1022.7mb 67f 56f
9:54pm 8 15 mph 1022.7mb 67f 56f
9:48pm 8 15 mph 1022.7mb 67f 56f
9:42pm 9 15 mph 1022.7mb 67f 56f
9:36pm 9 16 mph 1022.6mb 67f 56f
9:30pm 11 16 mph 1022.7mb 67f 56f
9:24pm 11 17 mph 1022.5mb 67f 56f
9:18pm 11 17 mph 1022.6mb 67f 56f
9:12pm 10 16 mph 1022.5mb 67f 57f
9:06pm 10 15 mph 1022.5mb 66f 56f
9:00pm 8 17 mph 1022.3mb 66f 56f
8:54pm 10 17 mph 1022.3mb 66f 56f
8:48pm 7 15 mph 1022.2mb 66f 57f
8:42pm 9 16 mph 1022.1mb 66f 56f
8:36pm 9 17 mph 1022mb 66f 56f
8:30pm 10 15 mph 1022mb 67f 57f
8:24pm 10 17 mph 1021.8mb 67f 57f
8:18pm 10 15 mph 1021.7mb 67f 57f
8:12pm 8 16 mph 1021.7mb 67f 57f
8:06pm 9 15 mph 1021.7mb 67f 58f
8:00pm 9 15 mph 1021.5mb 67f 58f
7:54pm 9 16 mph 1021.3mb 67f 58f
7:48pm 11 18 mph 1021.3mb 67f 58f
7:42pm 9 18 mph 1021.2mb 67f 59f
7:36pm 15 20 mph 1021.2mb 67f 60f
7:00pm 8 13 mph 1020.5mb 67f 66f
6:54pm 9 14 mph 1020.4mb 67f 66f
6:48pm 8 13 mph 1019.8mb 67f 67f
6:42pm 8 17 mph 1019.5mb 67f 67f
6:36pm 13 16 mph 1019.5mb 67f 67f
6:30pm 9 14 mph 1019.5mb 67f 67f
6:24pm 8 15 mph 1019.5mb 67f 68f
6:18pm 9 16 mph 1019.3mb 67f 69f
6:12pm 8 17 mph 1019.2mb 67f 69f
6:06pm 9 20 mph 1019.2mb 67f 69f
6:00pm 7 18 mph 1019.2mb 67f 70f
5:54pm 13 17 mph 1019.1mb 67f 70f
5:48pm 9 20 mph 1019.1mb 67f 70f
5:42pm 14 20 mph 1018.9mb 67f 69f
5:36pm 11 17 mph 1018.9mb 67f 69f
5:30pm 10 15 mph 1019mb 67f 69f
5:24pm 9 22 mph 1019mb 67f 69f
5:18pm 10 20 mph 1019mb 67f 69f
5:12pm 10 22 mph 1018.9mb 67f 70f
5:06pm 11 18 mph 1018.9mb 67f 70f
5:00pm 9 21 mph 1018.9mb 67f 71f
4:54pm 13 17 mph 1019mb 67f 70f
4:48pm 9 18 mph 1019mb 67f 70f
4:42pm 8 21 mph 1019.1mb 67f 70f
4:36pm 11 20 mph 1019.2mb 67f 69f
4:30pm 9 18 mph 1019.1mb 67f 70f
4:24pm 9 18 mph 1019.1mb 67f 70f
4:18pm 11 18 mph 1019.1mb 68f 69f
4:12pm 10 20 mph 1019.2mb 68f 70f
4:06pm 10 18 mph 1019.3mb 68f 70f
4:00pm 10 21 mph 1019.3mb 68f 70f
3:54pm 14 18 mph 1019.2mb 68f 71f
3:48pm 10 18 mph 1019.3mb 67f 70f
3:42pm 10 17 mph 1019.4mb 67f 69f
3:36pm 9 17 mph 1019.4mb 67f 69f
3:30pm 9 20 mph 1019.5mb 67f 70f
3:24pm 11 20 mph 1019.5mb 67f 69f
3:18pm 10 18 mph 1019.5mb 67f 70f
3:12pm 10 17 mph 1019.4mb 67f 70f
3:06pm 13 18 mph 1019.5mb 67f 70f
3:00pm 8 18 mph 1019.6mb 67f 71f
2:54pm 14 17 mph 1019.5mb 67f 71f
2:48pm 9 22 mph 1019.5mb 67f 71f
2:42pm 14 23 mph 1019.5mb 67f 71f
2:36pm 13 17 mph 1019.5mb 67f 71f
2:30pm 10 17 mph 1019.5mb 67f 70f
2:24pm 10 22 mph 1019.6mb 67f 70f
2:18pm 14 21 mph 1019.6mb 67f 70f
2:12pm 10 15 mph 1019.6mb 67f 70f
2:06pm 10 23 mph 1019.6mb 67f 69f
2:00pm 11 21 mph 1019.7mb 67f 70f
1:54pm 11 20 mph 1019.6mb 67f 70f
1:48pm 11 18 mph 1019.7mb 67f 70f
1:42pm 13 22 mph 1019.7mb 67f 71f
1:36pm 11 18 mph 1019.7mb 67f 71f
1:30pm 11 23 mph 1019.7mb 67f 70f
1:24pm 13 20 mph 1019.8mb 67f 70f
1:18pm 13 22 mph 1019.8mb 67f 70f
1:12pm 14 24 mph 1019.9mb 67f 70f
1:06pm 11 20 mph 1019.9mb 67f 70f
1:00pm 9 21 mph 1019.9mb 67f 71f
12:54pm 13 22 mph 1019.9mb 67f 71f
12:48pm 11 22 mph 1019.9mb 67f 71f
12:42pm 10 20 mph 1019.9mb 67f 71f
12:36pm 13 22 mph 1019.9mb 67f 71f
12:30pm 13 18 mph 1020mb 67f 71f
12:24pm 10 18 mph 1020mb 67f 70f
12:18pm 14 21 mph 1020.1mb 67f 70f
12:12pm 13 21 mph 1020.1mb 67f 70f
12:06pm 10 17 mph 1020.1mb 67f 71f
12:00pm 9 21 mph 1020.1mb 67f 71f
11:54am 13 23 mph 1020mb 66f 71f
11:48am 9 18 mph 1020mb 66f 71f
11:42am 13 22 mph 1020.1mb 66f 71f
11:36am 10 18 mph 1020.1mb 66f 71f
11:30am 10 20 mph 1020.2mb 66f 70f
11:24am 11 22 mph 1020.2mb 66f 70f
11:18am 13 17 mph 1020.1mb 66f 70f
11:12am 10 21 mph 1020mb 66f 70f
11:06am 10 21 mph 1020mb 66f 69f
11:00am 14 20 mph 1019.9mb 66f 69f
10:54am 11 24 mph 1019.9mb 66f 69f
10:48am 11 17 mph 1019.9mb 66f 69f
10:42am 10 18 mph 1019.9mb 66f 69f
10:36am 10 21 mph 1019.9mb 66f 69f
10:30am 13 21 mph 1020mb 66f 69f
10:24am 13 16 mph 1019.9mb 66f 69f
10:18am 9 21 mph 1019.9mb 66f 69f
10:12am 13 22 mph 1019.9mb 66f 69f
10:06am 14 22 mph 1019.9mb 66f 68f
10:00am 10 22 mph 1019.9mb 66f 68f
9:54am 13 22 mph 1019.8mb 66f 69f
9:48am 11 20 mph 1019.8mb 66f 69f
9:42am 13 20 mph 1019.8mb 66f 68f
9:36am 13 21 mph 1019.7mb 66f 68f
9:30am 14 21 mph 1019.8mb 66f 68f
9:24am 11 22 mph 1019.8mb 66f 68f
9:18am 10 22 mph 1019.8mb 66f 68f
9:12am 11 21 mph 1019.8mb 66f 68f
9:06am 10 18 mph 1019.9mb 65f 68f
9:00am 9 18 mph 1020mb 66f 68f
8:54am 13 22 mph 1020.1mb 65f 68f
8:48am 10 21 mph 1020.1mb 65f 67f
8:42am 9 18 mph 1020.2mb 65f 67f
8:36am 11 21 mph 1020.2mb 65f 67f
8:30am 10 21 mph 1020.2mb 65f 67f
8:24am 10 18 mph 1020.1mb 65f 67f
8:18am 10 17 mph 1020.2mb 65f 66f
8:12am 9 20 mph 1020.2mb 65f 67f
8:06am 11 17 mph 1020.2mb 65f 66f
8:00am 8 18 mph 1020.1mb 65f 66f
7:54am 11 22 mph 1020.1mb 65f 66f
7:48am 13 20 mph 1020mb 65f 66f
7:42am 9 15 mph 1020mb 65f 66f
7:36am 8 18 mph 1020mb 65f 66f
7:30am 10 15 mph 1020.1mb 65f 65f
7:24am 7 20 mph 1020.1mb 65f 65f
7:18am 10 15 mph 1020mb 65f 64f
7:12am 7 16 mph 1020mb 65f 64f
7:06am 9 16 mph 1020mb 65f 65f
7:00am 8 16 mph 1020mb 65f 65f
6:54am 10 16 mph 1019.9mb 65f 65f
6:48am 8 14 mph 1019.9mb 65f 64f
6:42am 7 15 mph 1019.9mb 65f 64f
6:36am 6 14 mph 1019.9mb 65f 63f
6:30am 8 15 mph 1019.9mb 65f 63f
6:24am 10 16 mph 1019.9mb 65f 63f
6:18am 8 14 mph 1019.8mb 65f 62f
6:12am 9 16 mph 1019.9mb 65f 62f
6:06am 8 16 mph 1019.8mb 65f 62f
6:00am 8 15 mph 1019.8mb 65f 62f
5:54am 9 14 mph 1019.8mb 65f 62f
5:48am 8 17 mph 1019.8mb 65f 63f
5:42am 8 16 mph 1019.8mb 65f 63f
5:36am 7 15 mph 1019.7mb 65f 63f
5:30am 9 16 mph 1019.7mb 65f 63f
5:24am 7 15 mph 1019.7mb 65f 63f
5:18am 9 17 mph 1019.6mb 65f 63f
5:12am 7 15 mph 1019.7mb 65f 62f
5:06am 9 16 mph 1019.6mb 65f 62f
5:00am 8 13 mph 1019.6mb 65f 62f
4:54am 8 14 mph 1019.5mb 65f 62f
4:48am 9 15 mph 1019.4mb 65f 62f
4:42am 10 15 mph 1019.4mb 65f 62f
4:36am 8 16 mph 1019.4mb 65f 62f
4:30am 8 14 mph 1019.4mb 65f 62f
4:24am 8 14 mph 1019.4mb 65f 62f
4:18am 7 14 mph 1019.4mb 65f 62f
4:12am 8 15 mph 1019.4mb 65f 62f
4:06am 9 15 mph 1019.4mb 65f 62f
4:00am 9 15 mph 1019.5mb 65f 62f
3:54am 8 16 mph 1019.6mb 65f 62f
3:48am 7 13 mph 1019.7mb 65f 62f
3:42am 9 14 mph 1019.7mb 65f 62f
3:36am 7 11 mph 1019.7mb 65f 62f
3:30am 7 14 mph 1019.7mb 65f 62f
3:24am 7 10 mph 1019.7mb 65f 63f
3:18am 7 13 mph 1019.7mb 65f 63f
3:12am 7 13 mph 1019.7mb 65f 63f
3:06am 7 13 mph 1019.7mb 65f 63f
3:00am 7 15 mph 1019.7mb 65f 63f
2:54am 10 15 mph 1019.7mb 65f 63f
2:48am 8 13 mph 1019.7mb 65f 63f
2:42am 8 14 mph 1019.7mb 65f 63f
2:36am 7 13 mph 1019.7mb 65f 63f
2:30am 8 13 mph 1019.8mb 65f 63f
2:24am 8 14 mph 1019.8mb 65f 63f
2:18am 7 13 mph 1019.8mb 65f 63f
2:12am 8 13 mph 1019.8mb 65f 63f
2:06am 7 16 mph 1019.9mb 65f 63f
2:00am 6 14 mph 1020mb 65f 62f
1:54am 9 14 mph 1020mb 65f 62f
1:48am 7 13 mph 1020mb 65f 62f
1:42am 8 14 mph 1020mb 65f 63f
1:36am 7 13 mph 1020.1mb 65f 63f
1:30am 9 15 mph 1020.1mb 65f 63f
1:24am 9 15 mph 1020.2mb 65f 63f
1:18am 8 15 mph 1020.2mb 65f 63f
1:12am 8 14 mph 1020.3mb 65f 63f
1:06am 10 16 mph 1020.3mb 65f 64f
1:00am 10 13 mph 1020.4mb 65f 64f
12:54am 9 15 mph 1020.5mb 65f 64f
12:48am 9 15 mph 1020.6mb 65f 64f
12:42am 9 13 mph 1020.6mb 65f 64f
12:36am 8 17 mph 1020.6mb 65f 64f
12:30am 8 16 mph 1020.5mb 65f 64f
12:24am 10 14 mph 1020.5mb 65f 64f
12:18am 9 15 mph 1020.5mb 65f 64f
12:12am 10 17 mph 1020.5mb 65f 64f
12:06am 11 16 mph 1020.5mb 65f 64f
12:00am 9 15 mph 1020.5mb 65f 64f
Sat 05/30 11:54pm 10 16 mph 1020.4mb 65f 64f
11:48pm 9 16 mph 1020.4mb 65f 64f
11:42pm 10 20 mph 1020.3mb 65f 64f
11:36pm 9 15 mph 1020.3mb 65f 64f
11:30pm 10 16 mph 1020.3mb 65f 64f
11:24pm 10 21 mph 1020.3mb 65f 64f
11:18pm 11 17 mph 1020.4mb 65f 64f
11:12pm 10 20 mph 1020.4mb 65f 64f
11:06pm 8 17 mph 1020.4mb 65f 64f
11:00pm 11 18 mph 1020.5mb 65f 64f
10:54pm 11 17 mph 1020.5mb 65f 64f
10:48pm 9 17 mph 1020.5mb 65f 64f
10:42pm 11 20 mph 1020.5mb 65f 64f
10:36pm 9 17 mph 1020.6mb 65f 64f
10:30pm 9 18 mph 1020.6mb 65f 64f
10:24pm 9 16 mph 1020.6mb 65f 64f
10:18pm 9 17 mph 1020.6mb 65f 64f
10:12pm 10 18 mph 1020.6mb 65f 64f
10:06pm 13 18 mph 1020.6mb 65f 64f
10:00pm 10 18 mph 1020.6mb 65f 64f
9:54pm 10 20 mph 1020.6mb 65f 65f
9:48pm 9 18 mph 1020.6mb 65f 65f
9:42pm 10 18 mph 1020.5mb 65f 65f
9:36pm 10 20 mph 1020.5mb 65f 65f
9:30pm 10 20 mph 1020.5mb 65f 65f
9:24pm 11 17 mph 1020.6mb 65f 65f
9:18pm 8 16 mph 1020.6mb 65f 65f
9:12pm 9 20 mph 1020.6mb 65f 65f
9:06pm 13 21 mph 1020.5mb 65f 65f
9:00pm 10 21 mph 1020.5mb 65f 64f
8:54pm 10 17 mph 1020.6mb 65f 65f
8:48pm 11 17 mph 1020.7mb 65f 65f
8:42pm 9 18 mph 1020.7mb 65f 65f
8:36pm 11 20 mph 1020.7mb 65f 65f
8:30pm 10 20 mph 1020.7mb 65f 65f
8:24pm 11 18 mph 1020.7mb 65f 65f
8:18pm 9 22 mph 1020.7mb 66f 65f
8:12pm 10 20 mph 1020.7mb 66f 65f
8:06pm 9 14 mph 1020.7mb 66f 65f
8:00pm 8 14 mph 1020.8mb 66f 65f
7:54pm 9 20 mph 1020.8mb 66f 65f
7:48pm 11 18 mph 1020.9mb 66f 65f
7:42pm 11 16 mph 1021mb 66f 65f
7:36pm 9 17 mph 1021mb 66f 65f
7:30pm 8 18 mph 1021mb 66f 65f
7:24pm 10 16 mph 1021mb 66f 66f
7:18pm 10 18 mph 1021mb 66f 66f
7:12pm 13 18 mph 1021mb 66f 66f
7:06pm 7 17 mph 1021mb 66f 67f
7:00pm 8 18 mph 1021mb 66f 67f
6:54pm 13 17 mph 1021.1mb 66f 67f
6:48pm 9 16 mph 1021.1mb 66f 67f
6:42pm 10 18 mph 1021.1mb 66f 67f
6:36pm 10 16 mph 1021.1mb 66f 67f
6:30pm 9 15 mph 1021.1mb 66f 67f
6:24pm 10 18 mph 1021.1mb 66f 67f
6:18pm 8 15 mph 1021.2mb 66f 67f
6:12pm 9 16 mph 1021.2mb 66f 67f
6:06pm 11 20 mph 1021.1mb 66f 68f
6:00pm 9 18 mph 1021.1mb 66f 68f
5:54pm 10 15 mph 1021.1mb 66f 69f
5:48pm 10 15 mph 1021.2mb 66f 69f